Flag for Brazil Weather past 2 weeks in Cuiabá, Mato Grosso, Brazil

Now
73 °F

Passing clouds.


Feels Like: 72 °F
Forecast: 73 / 88 °F
Wind: 9 mph from North

Location: Cuiaba Aeroporto

Current Time: Oct 25, 2014 at 4:45:39 AM

Latest Report: Oct 25, 2014 at 4:00 AM


Visibility: N/A

Pressure: 29.86 "Hg

Humidity: 89%

Dew point: 70 °F

Location of CuiabáLocation

Historic Weather in Cuiabá — Graph

°F

Cuiabá temperature yesterday

Maximum temperature yesterday: 95 °F (at 2:00 PM)
Minimum temperature yesterday: 37 °F (at 4:00 PM)
Average temperature yesterday: 79 °F

Past Weeks' High & Low Weather Summary

 TemperatureHumidityPressure
High106 °F (Oct 11, 1:00 PM)100% (Oct 24, 4:00 PM)30.04 "Hg (Oct 24, 4:00 PM)
Low37 °F (Oct 24, 4:00 PM)18% (Oct 12, 3:00 PM)29.71 "Hg (Oct 18, 3:00 PM)
Average87 °F56%29.86 "Hg
* Reported Oct 10 2:00 AM — Oct 25 3:00 AM, Cuiabá, Weather by CustomWeather, © 2014

Note: Actual official high and low records may vary slightly from our data, if they occured in-between our weather recording intervals... More about our weather records

Advertising

Cuiabá weather history for previous 24 hours

 ConditionsComfort  
Time TempWeatherWind HumidityBarometerVisibility
3:00 AM
Oct 25
73 °FLight rain. Passing clouds.8 mph89%29.86 "HgN/A
2:00 AM73 °FLight rain. Passing clouds.13 mph89%29.89 "HgN/A
1:00 AM73 °FLight rain. Passing clouds.No wind89%29.89 "HgN/A
12:00 AM73 °FRain. Passing clouds.7 mph89%29.95 "Hg5 mi
11:00 PM
Oct 24
73 °FRain. Passing clouds.2 mph89%29.95 "Hg4 mi
10:00 PM73 °FPassing clouds.5 mph89%29.92 "HgN/A
9:00 PM75 °FPassing clouds.7 mph83%29.89 "HgN/A
8:10 PM75 °FPassing clouds.10 mph89%29.86 "HgN/A
8:00 PM75 °FLight rain. Passing clouds.14 mph89%29.86 "HgN/A
7:00 PM41 °FThunderstorms. Partly cloudy.10 mph100%29.83 "Hg6 mi
6:00 PM81 °FSprinkles. Broken clouds.9 mph70%29.80 "HgN/A
5:00 PM86 °FScattered showers. Broken clouds.6 mph55%N/AN/A
4:00 PM37 °FMixture of precip. Partly sunny.12 mph100%29.77 "HgN/A
3:00 PM93 °FPartly sunny.6 mph41%29.77 "HgN/A
2:00 PM95 °FScattered clouds.17 mph39%29.80 "HgN/A
1:00 PM93 °FBroken clouds.6 mph44%29.89 "HgN/A
12:00 PM91 °FBroken clouds.10 mph46%29.92 "HgN/A
11:00 AM90 °FPartly sunny.7 mph52%29.92 "HgN/A
10:00 AM88 °FPartly sunny.10 mph55%29.95 "HgN/A
9:00 AM86 °FPassing clouds.9 mph59%29.92 "HgN/A
8:00 AM82 °FPartly sunny.6 mph66%29.92 "HgN/A
7:00 AM81 °FPartly sunny.13 mph74%29.89 "HgN/A
6:00 AM79 °FPassing clouds.6 mph74%29.86 "HgN/A
5:00 AM79 °FPassing clouds.5 mph79%29.83 "HgN/A
4:00 AM79 °FPassing clouds.5 mph79%29.83 "HgN/A
Weather by CustomWeather, © 2014

See weather overviewHow to use our weather pages